Clinton-Sherman, OK

1:00 AM CDT on October 19, 2017 (GMT -0500)
Clinton-Sherman

Weather History for KCSM - July, 2012

Change the Weather History Date:

Wednesday, July 11, 2012

  Actual Average Record
Temperature  
Mean Temperature 82 °F -  
Max Temperature 95 °F 94 °F 106 °F (2001)
Min Temperature 70 °F 69 °F 57 °F (1999)
Cooling Degree Days 16    
Growing Degree Days 32 (Base 50)    
Moisture  
Dew Point 58 °F    
Average Humidity 47    
Maximum Humidity 81    
Minimum Humidity 21    
Precipitation  
Precipitation 0.00 in - - ()
Sea Level Pressure  
Sea Level Pressure 29.99 in    
Wind  
Wind Speed 7 mph (NNE)    
Max Wind Speed 13 mph    
Max Gust Speed 17 mph    
Visibility 10 miles    
Events      
Averages and records for this station are not official NWS values.
T = Trace of Precipitation, MM = Missing Value Source: NWS Daily Summary

Daily Weather History Graph

Daily Weather History Graph

Search for Another Location

Airport or City:

Trip Planner

Search our weather history database for the weather conditions in past years. The results will help you decide how hot, cold, wet, or windy it might be!

Date:

Astronomy

Jul. 11, 2012 Rise Set
Actual Time 6:31 AM CDT 8:53 PM CDT
Civil Twilight 6:01 AM CDT 9:22 PM CDT
Nautical Twilight 5:25 AM CDT 9:58 PM CDT
Astronomical Twilight 4:46 AM CDT 10:38 PM CDT
Moon 12:59 AM CDT (7/11) 2:35 PM CDT (7/11)
Length of Visible Light 15h 20m
Length of Day
14h 22m
Last Quarter, 44% of the Moon is Illuminated
Jul 11
Last Quarter
Jul 18
New
Jul 26
First Quarter
Aug 1
Full
Aug 9
Last Quarter

Hourly Weather History & Observations

Time (CDT) Temp. Heat Index Dew Point Humidity Pressure Visibility Wind Dir Wind Speed Gust Speed Precip Events Conditions
12:53 AM 75.0 °F - 64.9 °F 71% 30.02 in 10.0 mi NNW 6.9 mph - N/A   Partly Cloudy
1:53 AM 75.0 °F - 64.9 °F 71% 30.02 in 10.0 mi North 3.5 mph - N/A   Clear
2:53 AM 71.1 °F - 64.9 °F 81% 30.01 in 10.0 mi NNW 4.6 mph - N/A   Clear
3:53 AM 72.0 °F - 63.0 °F 73% 30.00 in 10.0 mi NNW 5.8 mph - N/A   Scattered Clouds
4:53 AM 73.0 °F - 63.0 °F 71% 30.00 in 10.0 mi North 10.4 mph - N/A   Overcast
5:53 AM 70.0 °F - 62.1 °F 76% 30.00 in 10.0 mi North 8.1 mph - N/A   Partly Cloudy
7:53 AM 73.0 °F - 60.1 °F 64% 30.02 in 10.0 mi North 9.2 mph - N/A   Clear
8:53 AM 75.9 °F - 60.1 °F 58% 30.04 in 10.0 mi NNE 8.1 mph - N/A   Clear
9:53 AM 80.1 °F 80.9 °F 60.1 °F 50% 30.04 in 10.0 mi NE 8.1 mph - N/A   Clear
10:53 AM 84.9 °F 84.8 °F 60.1 °F 43% 30.04 in 10.0 mi North 6.9 mph - N/A   Clear
11:53 AM 89.1 °F 87.7 °F 57.0 °F 34% 30.03 in 10.0 mi Calm Calm - N/A   Clear
12:53 PM 90.0 °F 87.9 °F 55.0 °F 30% 30.01 in 10.0 mi NNE 12.7 mph 16.1 mph N/A   Partly Cloudy
1:53 PM 91.9 °F 89.5 °F 53.1 °F 27% 30.00 in 10.0 mi NNE 5.8 mph - N/A   Scattered Clouds
2:53 PM 91.0 °F 88.7 °F 54.0 °F 28% 29.98 in 10.0 mi NE 10.4 mph - N/A   Scattered Clouds
3:53 PM 93.0 °F 90.6 °F 53.1 °F 26% 29.95 in 10.0 mi NNE 3.5 mph - N/A   Scattered Clouds
4:53 PM 93.9 °F 91.4 °F 53.1 °F 25% 29.94 in 10.0 mi NNE 5.8 mph - N/A   Scattered Clouds
5:53 PM 93.9 °F - 52.0 °F 24% 29.92 in 10.0 mi ENE 9.2 mph 17.3 mph N/A   Clear
6:53 PM 93.9 °F - 48.9 °F 21% 29.91 in 10.0 mi NNE 10.4 mph - N/A   Clear
7:53 PM 91.0 °F - 48.0 °F 23% 29.91 in 10.0 mi North 10.4 mph - N/A   Clear
8:53 PM 81.0 °F 80.7 °F 55.0 °F 41% 29.93 in 10.0 mi NNE 6.9 mph - N/A   Clear
10:53 PM 80.1 °F 80.7 °F 59.0 °F 48% 29.97 in 10.0 mi East 4.6 mph - N/A   Clear
11:53 PM 78.1 °F - 60.1 °F 54% 29.97 in 10.0 mi NE 3.5 mph - N/A   Clear